[Date Prev][Date Next][Thread Prev][Thread Next] - [Date Index][Thread Index][Author Index]

2 Line ISS Keps 3-11



ISS
1 25544U 98067A   02070.14278961  .00068395  00000-0  80837-3 0  1708
2 25544  51.6377 185.4698 0004625 165.7017 255.8086 15.60648729188746


----
Via the sarex mailing list at AMSAT.ORG courtesy of AMSAT-NA.
To unsubscribe, send "unsubscribe sarex" to Majordomo@amsat.org



AMSAT Top AMSAT Home